Hourly Data Report for March 16, 2006

TORONTO CITY
ONTARIO

43°40'00.000" N
79°24'00.000" W
112.50 m
6158355
71508
XTO

Download Data

Hourly Data (March 2006)
Hourly Data Report for March 16, 2006
TIME
LST
Temp Definition
°C
Dew Point Definition
°C
Rel Hum Definition
%
Precip. Amount Definition
mm

Wind Dir Definition
10's deg

Wind Spd Definition
km/h
Visibility Definition
km
Stn Press Definition
kPa
Hmdx Definition


Wind Chill Definition


Weather Definition


00:00 0.1 -6.7 60   LegendMM LegendMM   100.30     LegendNANA
01:00 -0.2 -6.6 62   LegendMM LegendMM   100.36     LegendNANA
02:00 -0.6 -6.3 65   LegendMM LegendMM   100.43     LegendNANA
03:00 -1.1 -6.0 69   LegendMM LegendMM   100.44     LegendNANA
04:00 -1.3 -5.7 72   LegendMM LegendMM   100.46     LegendNANA
05:00 -1.5 -5.7 73   LegendMM LegendMM   100.48     LegendNANA
06:00 -1.8 -5.7 75   LegendMM LegendMM   100.52     LegendNANA
07:00 -2.0 -5.8 75   LegendMM LegendMM   100.56     LegendNANA
08:00 -1.6 -5.9 72   LegendMM LegendMM   100.58     LegendNANA
09:00 -0.8 -7.3 61   LegendMM LegendMM   100.60     LegendNANA
10:00 0.7 -6.4 59   LegendMM LegendMM   100.58     LegendNANA
11:00 2.8 -5.3 55   LegendMM LegendMM   100.58     LegendNANA
12:00 3.8 -6.8 46   LegendMM LegendMM   100.54     LegendNANA
13:00 4.7 -4.7 50   LegendMM LegendMM   100.50     LegendNANA
14:00 3.7 -6.1 49   LegendMM LegendMM   100.44     LegendNANA
15:00 3.8 -6.1 48   LegendMM LegendMM   100.42     LegendNANA
16:00 3.8 -5.3 51   LegendMM LegendMM   100.39     LegendNANA
17:00 3.0 -5.1 55   LegendMM LegendMM   100.43     LegendNANA
18:00 1.5 -5.5 60   LegendMM LegendMM   100.50     LegendNANA
19:00 -0.1 -5.9 65   LegendMM LegendMM   100.55     LegendNANA
20:00 -1.1 -6.3 68   LegendMM LegendMM   100.59     LegendNANA
21:00 -2.1 -7.0 69   LegendMM LegendMM   100.62     LegendNANA
22:00 -2.4 -7.1 70   LegendMM LegendMM   100.67     LegendNANA
23:00 -2.4 -7.1 70   LegendMM LegendMM   100.69     LegendNANA

Notes on Data Quality.

Legend

  • E = Estimated
  • M = Missing
  • NA = Not Available*
  • [empty] = Indicates an unobserved value
Date modified: